Weather History for Crestview, FL

Change the Weather History Date:

Monday, November 5, 2012

  Actual Average Record
Temperature  
Mean Temperature 60 °F -  
Max Temperature 75 °F 71 °F 87 °F (1975)
Min Temperature 46 °F 47 °F 26 °F (1991)
Degree Days  
Heating Degree Days 4    
Growing Degree Days 10 (Base 50)    
Moisture  
Dew Point 47 °F    
Average Humidity 67    
Maximum Humidity 96    
Minimum Humidity 25    
Precipitation  
Precipitation 0.42 in - - ()
Sea Level Pressure  
Sea Level Pressure 30.00 in    
Wind  
Wind Speed 3 mph (NNE)    
Max Wind Speed 12 mph    
Max Gust Speed -    
Visibility 8 miles    
Events Rain , Thunderstorm    
Averages and records for this station are not official NWS values.
T = Trace of Precipitation, MM = Missing Value Source: NWS Daily Summary

Daily Weather History Graph

Daily Weather History Graph

Search for Another Location

Airport:

Trip Planner

Search our weather history database for the weather conditions in past years. The results will help you decide how hot, cold, wet, or windy it might be!

Date:

Astronomy

Nov. 05, 2012 Rise Set
Actual Time 6:04 AM CST 4:54 PM CST
Civil Twilight 5:39 AM CST 5:19 PM CST
Nautical Twilight 5:10 AM CST 5:48 PM CST
Astronomical Twilight 4:42 AM CST 6:16 PM CST
Moon 10:30 PM CST (11/5) 11:22 AM CST (11/5)
Length of Visible Light 11h 39m
Length of Day
10h 49m
Waning Gibbous, 62% of the Moon is Illuminated
Nov 5
Waning Gibbous
Nov 6
Last Quarter
Nov 13
New
Nov 20
First Quarter
Nov 28
Full

Hourly Weather History & Observations

Time (CST) Temp. Dew Point Humidity Pressure Visibility Wind Dir Wind Speed Gust Speed Precip Events Conditions
12:53 AM 55.0 °F 52.0 °F 89% 30.06 in 10.0 mi Calm Calm - N/A   Clear
1:53 AM 55.9 °F 52.0 °F 87% 30.05 in 9.0 mi North 4.6 mph - N/A   Clear
4:53 AM 46.9 °F 45.0 °F 93% 30.07 in 6.0 mi Calm Calm - N/A   Clear
6:53 AM 51.1 °F 46.0 °F 83% 30.09 in 8.0 mi Calm Calm - N/A   Clear
7:53 AM 55.0 °F 46.9 °F 74% 30.10 in 10.0 mi Variable 4.6 mph - N/A   Clear
8:53 AM 61.0 °F 44.1 °F 54% 30.09 in 10.0 mi NNE 5.8 mph - N/A   Clear
9:53 AM 64.0 °F 41.0 °F 43% 30.09 in 10.0 mi ENE 5.8 mph - N/A   Clear
10:53 AM 69.1 °F 37.9 °F 32% 30.06 in 10.0 mi Variable 3.5 mph - N/A   Clear
11:53 AM 72.0 °F 37.9 °F 29% 30.02 in 10.0 mi Variable 4.6 mph - N/A   Clear
12:53 PM 73.0 °F 36.0 °F 26% 30.00 in 10.0 mi East 4.6 mph - N/A   Clear
1:53 PM 75.0 °F 37.0 °F 25% 29.97 in 10.0 mi Calm Calm - N/A   Clear
2:53 PM 75.0 °F 37.0 °F 25% 29.97 in 10.0 mi North 3.5 mph - N/A   Partly Cloudy
3:53 PM 71.1 °F 39.0 °F 31% 29.98 in 10.0 mi NNW 4.6 mph - N/A   Overcast
4:53 PM 68.0 °F 43.0 °F 40% 29.99 in 10.0 mi Calm Calm - N/A   Mostly Cloudy
5:53 PM 64.9 °F 42.1 °F 43% 29.99 in 10.0 mi ENE 3.5 mph - N/A   Overcast
6:53 PM 61.0 °F 46.9 °F 60% 29.97 in 10.0 mi SE 3.5 mph - 0.00 in   Overcast
7:53 PM 57.9 °F 53.1 °F 84% 29.97 in 10.0 mi Calm Calm - 0.00 in Rain Light Rain
8:53 PM 57.9 °F 52.0 °F 81% 29.98 in 10.0 mi NNW 5.8 mph - 0.01 in   Overcast
9:53 PM 55.9 °F 54.0 °F 93% 29.94 in 10.0 mi North 3.5 mph - 0.01 in   Mostly Cloudy
10:17 PM 57.2 °F 53.6 °F 88% 29.93 in 10.0 mi Calm Calm - 0.00 in Thunderstorm Overcast
10:32 PM 55.4 °F 53.6 °F 94% 29.94 in 10.0 mi Calm Calm - 0.00 in   Overcast
10:53 PM 55.9 °F 51.1 °F 84% 29.96 in 3.0 mi NNW 11.5 mph - 0.06 in Rain Rain
11:16 PM 55.4 °F 51.8 °F 88% 29.95 in 5.0 mi North 6.9 mph - 0.08 in Rain , Thunderstorm Rain
11:22 PM 55.4 °F 51.8 °F 88% 29.94 in 1.8 mi Calm Calm - 0.15 in Rain , Thunderstorm Heavy Rain
11:44 PM 55.4 °F 53.6 °F 94% 29.93 in 2.0 mi Calm Calm - 0.29 in Rain Heavy Rain
11:51 PM 55.4 °F 53.6 °F 94% 29.94 in 1.5 mi SSW 4.6 mph - 0.33 in Rain Heavy Rain
11:53 PM 55.0 °F 54.0 °F 96% 29.93 in 1.8 mi South 6.9 mph - 0.34 in Rain Heavy Rain